Weather History for Egegik, AK

Change the Weather History Date:

Sunday, November 10, 2013

  Actual Average (PAKN) Record (PAKN)
Temperature  
Mean Temperature 38 °F 24 °F  
Max Temperature 44 °F 31 °F 49 °F (1979)
Min Temperature 33 °F 16 °F -17 °F (1975)
Degree Days  
Heating Degree Days 26 41  
Month to date heating degree days 398  
Since 1 July heating degree days 2510  
Cooling Degree Days 0    
Month to date cooling degree days  
Year to date cooling degree days  
Moisture  
Dew Point 33 °F    
Average Humidity 84    
Maximum Humidity 100    
Minimum Humidity 65    
Precipitation  
Precipitation 0.41 in 0.05 in 0.54 in (1985)
Month to date precipitation 0.49  
Year to date precipitation 17.36  
Snow  
Snow 0.00 in 0.20 in 4.20 in (1987)
Month to date snowfall 1.8  
Since 1 July snowfall 4.7  
Since 1 September snowfall 4.7  
Snow Depth -    
Sea Level Pressure  
Sea Level Pressure 29.96 in    
Wind  
Wind Speed 10 mph (NW)    
Max Wind Speed 24 mph    
Max Gust Speed 33 mph    
Visibility 9 miles    
Events      
T = Trace of Precipitation, MM = Missing Value Source: NWS Daily Summary

Daily Weather History Graph

Daily Weather History Graph

Search for Another Location

Airport:

Trip Planner

Search our weather history database for the weather conditions in past years. The results will help you decide how hot, cold, wet, or windy it might be!

Date:

Astronomy

Nov. 10, 2013 Rise Set
Actual Time 9:06 AM AKST 5:19 PM AKST
Civil Twilight 8:22 AM AKST 6:04 PM AKST
Nautical Twilight 7:33 AM AKST 6:52 PM AKST
Astronomical Twilight 6:47 AM AKST 7:38 PM AKST
Moon 2:53 PM AKST (11/10) 12:27 AM AKST (11/10)
Length of Visible Light 9h 41m
Length of Day
8h 12m
First Quarter, 57% of the Moon is Illuminated
Nov 10
First Quarter
Nov 17
Full
Nov 25
Last Quarter
Dec 2
New
Dec 9
First Quarter

Hourly Weather History & Observations

Time (AKST) Temp. Windchill Dew Point Humidity Pressure Visibility Wind Dir Wind Speed Gust Speed Precip Events Conditions
12:16 AM 44.6 °F 38.4 °F 42.8 °F 93% 30.02 in 9.0 mi SW 12.7 mph - 0.02 in   Overcast
12:36 AM 44.6 °F 38.8 °F 42.8 °F 93% 30.02 in 7.0 mi WSW 11.5 mph - 0.04 in   Overcast
12:56 AM 41.0 °F 36.4 °F 39.2 °F 93% 30.02 in 6.0 mi NW 6.9 mph - 0.06 in   Overcast
1:16 AM 41.0 °F 37.1 °F 39.2 °F 93% 30.01 in 6.0 mi NW 5.8 mph - 0.02 in   Overcast
1:36 AM 41.0 °F 36.4 °F 39.2 °F 93% 30.01 in 6.0 mi NW 6.9 mph - 0.04 in   Overcast
1:56 AM 39.2 °F 34.2 °F 39.2 °F 100% 30.00 in 7.0 mi NNW 6.9 mph - 0.05 in   Overcast
2:16 AM 39.2 °F 35.0 °F 39.2 °F 100% 30.00 in 8.0 mi NNW 5.8 mph - 0.02 in   Overcast
2:36 AM 39.2 °F 35.9 °F 37.4 °F 93% 29.99 in 8.0 mi North 4.6 mph - 0.04 in   Overcast
2:56 AM 39.2 °F 35.0 °F 37.4 °F 93% 29.99 in 9.0 mi NNW 5.8 mph - 0.05 in   Overcast
3:16 AM 39.2 °F 35.0 °F 35.6 °F 87% 29.98 in 10.0 mi NNW 5.8 mph - 0.01 in   Overcast
3:36 AM 39.2 °F 35.9 °F 35.6 °F 87% 29.98 in 10.0 mi NW 4.6 mph - 0.02 in   Overcast
3:56 AM 37.4 °F 34.9 °F 37.4 °F 100% 29.97 in 10.0 mi North 3.5 mph - 0.04 in   Overcast
4:16 AM 37.4 °F 32.1 °F 35.6 °F 93% 29.96 in 10.0 mi North 6.9 mph - 0.01 in   Overcast
4:36 AM 37.4 °F 30.8 °F 35.6 °F 93% 29.96 in 10.0 mi North 9.2 mph - 0.02 in   Overcast
4:56 AM 37.4 °F 32.1 °F 33.8 °F 87% 29.94 in 10.0 mi North 6.9 mph - 0.03 in   Overcast
5:16 AM 37.4 °F 32.1 °F 33.8 °F 87% 29.94 in 10.0 mi North 6.9 mph - N/A   Overcast
5:36 AM 35.6 °F 30.7 °F 33.8 °F 93% 29.94 in 10.0 mi North 5.8 mph - 0.01 in   Overcast
5:56 AM 35.6 °F 31.7 °F 33.8 °F 93% 29.93 in 10.0 mi North 4.6 mph - 0.02 in   Overcast
6:16 AM 35.6 °F 31.7 °F 33.8 °F 93% 29.93 in 10.0 mi North 4.6 mph - 0.01 in   Overcast
6:36 AM 35.6 °F 31.7 °F 33.8 °F 93% 29.93 in 10.0 mi North 4.6 mph - 0.02 in   Overcast
6:56 AM 35.6 °F 32.8 °F 33.8 °F 93% 29.92 in 10.0 mi North 3.5 mph - 0.03 in   Overcast
7:16 AM 35.6 °F 32.8 °F 33.8 °F 93% 29.92 in 10.0 mi North 3.5 mph - 0.01 in   Overcast
7:36 AM 33.8 °F 29.6 °F 32.0 °F 93% 29.91 in 8.0 mi NNW 4.6 mph - 0.02 in   Overcast
7:56 AM 33.8 °F 29.6 °F 32.0 °F 93% 29.91 in 8.0 mi North 4.6 mph - 0.02 in   Overcast
8:16 AM 33.8 °F 30.8 °F 32.0 °F 93% 29.91 in 9.0 mi NNW 3.5 mph - 0.01 in   Overcast
8:36 AM 33.8 °F 30.8 °F 32.0 °F 93% 29.91 in 10.0 mi NNW 3.5 mph - 0.02 in   Overcast
8:56 AM 33.8 °F 29.6 °F 32.0 °F 93% 29.92 in 10.0 mi NW 4.6 mph - 0.02 in   Overcast
9:16 AM 35.6 °F 30.7 °F 33.8 °F 93% 29.92 in 8.0 mi NW 5.8 mph - 0.01 in   Overcast
9:36 AM 35.6 °F 29.9 °F 33.8 °F 93% 29.92 in 6.0 mi NW 6.9 mph - 0.02 in   Overcast
9:56 AM 35.6 °F 29.2 °F 33.8 °F 93% 29.92 in 10.0 mi NW 8.1 mph - 0.03 in   Overcast
10:16 AM 37.4 °F 31.4 °F 33.8 °F 87% 29.92 in 10.0 mi NW 8.1 mph - N/A   Overcast
10:36 AM 37.4 °F 30.8 °F 33.8 °F 87% 29.93 in 10.0 mi NW 9.2 mph - N/A   Mostly Cloudy
10:56 AM 37.4 °F 30.3 °F 33.8 °F 87% 29.93 in 10.0 mi WNW 10.4 mph - N/A   Mostly Cloudy
11:16 AM 37.4 °F 29.3 °F 35.6 °F 93% 29.93 in 9.0 mi WNW 12.7 mph - 0.01 in   Overcast
11:36 AM 37.4 °F 30.8 °F 33.8 °F 87% 29.93 in 10.0 mi West 9.2 mph - 0.01 in   Mostly Cloudy
11:56 AM 35.6 °F 28.6 °F 33.8 °F 93% 29.94 in 7.0 mi NNW 9.2 mph - 0.02 in   Overcast
12:16 PM 37.4 °F 32.1 °F 33.8 °F 87% 29.93 in 10.0 mi NW 6.9 mph - N/A   Mostly Cloudy
12:36 PM 37.4 °F 30.8 °F 33.8 °F 87% 29.93 in 10.0 mi WNW 9.2 mph - N/A   Mostly Cloudy
12:56 PM 37.4 °F 30.3 °F 33.8 °F 87% 29.94 in 10.0 mi WNW 10.4 mph - N/A   Overcast
1:16 PM 37.4 °F 31.4 °F 33.8 °F 87% 29.94 in 10.0 mi WNW 8.1 mph - N/A   Mostly Cloudy
1:36 PM 37.4 °F 31.4 °F 33.8 °F 87% 29.94 in 10.0 mi West 8.1 mph - N/A   Mostly Cloudy
1:56 PM 39.2 °F 34.2 °F 33.8 °F 81% 29.94 in 10.0 mi West 6.9 mph - N/A   Mostly Cloudy
2:16 PM 37.4 °F 29.8 °F 32.0 °F 81% 29.95 in 5.0 mi West 11.5 mph - 0.01 in   Overcast
2:36 PM 35.6 °F 29.9 °F 32.0 °F 87% 29.94 in 8.0 mi WSW 6.9 mph - 0.02 in   Overcast
2:56 PM 35.6 °F 32.8 °F 33.8 °F 93% 29.94 in 10.0 mi SW 3.5 mph - 0.03 in   Overcast
3:16 PM 37.4 °F 30.8 °F 33.8 °F 87% 29.94 in 10.0 mi West 9.2 mph - N/A   Overcast
3:36 PM 37.4 °F 28.5 °F 33.8 °F 87% 29.94 in 10.0 mi WNW 15.0 mph - N/A   Overcast
3:56 PM 37.4 °F 27.2 °F 30.2 °F 75% 29.95 in 10.0 mi West 19.6 mph 27.6 mph N/A   Overcast
4:16 PM 37.4 °F 26.4 °F 30.2 °F 75% 29.95 in 10.0 mi West 23.0 mph 33.4 mph 0.01 in   Overcast
4:36 PM 37.4 °F 26.4 °F 30.2 °F 75% 29.95 in 10.0 mi West 23.0 mph 29.9 mph 0.01 in   Overcast
4:56 PM 37.4 °F 26.1 °F 30.2 °F 75% 29.95 in 10.0 mi West 24.2 mph 29.9 mph 0.01 in   Mostly Cloudy
5:16 PM 37.4 °F 26.4 °F 30.2 °F 75% 29.96 in 10.0 mi West 23.0 mph 29.9 mph N/A   Mostly Cloudy
5:36 PM 37.4 °F 26.1 °F 28.4 °F 70% 29.97 in 10.0 mi WNW 24.2 mph 29.9 mph N/A   Partly Cloudy
5:56 PM 37.4 °F 26.9 °F 26.6 °F 65% 29.97 in 10.0 mi WNW 20.7 mph 28.8 mph N/A   Clear
6:16 PM 37.4 °F 27.8 °F 28.4 °F 70% 29.97 in 10.0 mi WNW 17.3 mph 27.6 mph N/A   Clear
6:36 PM 37.4 °F 27.5 °F 28.4 °F 70% 29.98 in 10.0 mi West 18.4 mph 26.5 mph N/A   Scattered Clouds
6:56 PM 37.4 °F 26.6 °F 28.4 °F 70% 29.98 in 10.0 mi WNW 21.9 mph - N/A   Mostly Cloudy
7:16 PM 37.4 °F 26.4 °F 32.0 °F 81% 29.99 in 10.0 mi West 23.0 mph 31.1 mph N/A   Mostly Cloudy
7:36 PM 35.6 °F 24.8 °F 30.2 °F 81% 29.98 in 10.0 mi West 19.6 mph 26.5 mph N/A   Mostly Cloudy
7:56 PM 37.4 °F 26.6 °F 30.2 °F 75% 29.99 in 10.0 mi WNW 21.9 mph 26.5 mph N/A   Mostly Cloudy
8:16 PM 35.6 °F 25.2 °F 28.4 °F 75% 29.99 in 10.0 mi WNW 18.4 mph 25.3 mph N/A   Mostly Cloudy
8:36 PM 37.4 °F 27.2 °F 28.4 °F 70% 30.00 in 10.0 mi WNW 19.6 mph - N/A   Mostly Cloudy
8:56 PM 35.6 °F 24.8 °F 28.4 °F 75% 30.01 in 10.0 mi WNW 19.6 mph 25.3 mph N/A   Scattered Clouds
9:16 PM 37.4 °F 26.9 °F 26.6 °F 65% 30.01 in 10.0 mi WNW 20.7 mph 26.5 mph N/A   Mostly Cloudy
9:36 PM 37.4 °F 26.6 °F 26.6 °F 65% 30.02 in 10.0 mi WNW 21.9 mph 27.6 mph N/A   Mostly Cloudy
9:56 PM 37.4 °F 26.9 °F 26.6 °F 65% 30.02 in 10.0 mi WNW 20.7 mph 26.5 mph N/A   Scattered Clouds
10:16 PM 37.4 °F 26.9 °F 26.6 °F 65% 30.02 in 10.0 mi West 20.7 mph 25.3 mph N/A   Mostly Cloudy
10:36 PM 35.6 °F 25.2 °F 26.6 °F 70% 30.03 in 10.0 mi WNW 18.4 mph 25.3 mph N/A   Scattered Clouds
10:56 PM 35.6 °F 24.5 °F 28.4 °F 75% 30.04 in 10.0 mi WNW 20.7 mph 26.5 mph N/A   Partly Cloudy
11:16 PM 35.6 °F 24.5 °F 26.6 °F 70% 30.04 in 10.0 mi WNW 20.7 mph 26.5 mph N/A   Partly Cloudy
11:36 PM 35.6 °F 24.0 °F 24.8 °F 65% 30.04 in 10.0 mi West 23.0 mph 28.8 mph N/A   Clear
11:56 PM 35.6 °F 24.5 °F 24.8 °F 65% 30.04 in 10.0 mi West 20.7 mph 27.6 mph N/A   Clear